Tenerife > ESTACION METEOROLÓGICA La Cuesta - San Cristóbal de La Laguna

DATOS ACTUALES Online

Ultima actulizacion 20 minutos

18 ºC

Temperatura

75

Humedad (%)

975.86

Presión (mb)

0

Precipitación (mm)

31.5 NW

Viento (Km/h)

DATOS DIARIOS

Temperatura últimas 24 horas (ºC)

Humedad últimas 24 horas (%)

Presión atmosférica últimas 24 horas (mb)

Precipitaciones últimas 23 horas (mm)

Viento últimas 24 horas (Km/h)

Hora Temperatura (°C) ºC Precipitación (mm) mm Presión (mb) mb Humedad (%) % Viento (Km/h) km/h
29 - 00:00 17.2 0 976 79 28.5 NW
29 - 01:00 16.9 0 976 80 24.2 NW
29 - 02:00 16.8 0 976 80 21.7 NW
29 - 03:00 16.8 0 976 78 16.2 NW
29 - 04:00 16.6 0 975 75 13.2 NW
29 - 05:00 16.8 0 975 75 17.7 N
29 - 06:00 16.8 0 975 77 15.4 NW
29 - 07:00 17 0 975 76 19.6 NW
29 - 08:00 18.6 0 976 70 17.3 NW
29 - 09:00 18.4 0 977 66 16.5 NW
29 - 10:00 19 0 977 64 17.5 N
29 - 11:00 20.1 0 977 68 13.9 SW
29 - 12:00 20.4 0 977 65 12.2 NO
29 - 13:00 20.4 0 976 64 27 NW
29 - 14:00 19.8 0 976 67 25.5 NW
29 - 15:00 20.1 0 976 65 17.7 N
29 - 16:00 20 0 976 65 24.8 NW
29 - 17:00 19.6 0 975 65 21.1 NW
29 - 18:00 19.5 0 975 63 22.4 NW
29 - 19:00 18.9 0 975 67 24.9 NW
29 - 20:00 18.6 0 975 70 26.9 NW
29 - 21:00 18.3 0 976 74 23.4 NW
29 - 22:00 18.2 0 976 75 25.2 NW
29 - 23:00 18 0 976 75 31.5 NW
30 - 00:00
Apalmet utiliza cookies propias y de terceros para mejorar la usabilidad y la experiencia web. Política de cookies.